Regional Weather Roundup
Issued by NWS

Home | Current Version | Previous Version | Text Only | Print | Product List | Glossary Off
Versions: 1 2 3 4 5 6 7 8 9 10 11 12 13 14 15 16 17 18 19 20 21 22 23 24 25 26 27 28 29 30 31 32 33 34 35 36 37 38 39 40 41 42 43 44 45 46 47 48 49 50

000
ASUS43 KLSX 221307
RWRMO

WEATHER SUMMARY FOR MISSOURI
NATIONAL WEATHER SERVICE SPRINGFIELD MO
700 AM CST MON DEC 22 2014

NOTE: "FAIR" INDICATES FEW OR NO CLOUDS BELOW 12,000 FEET WITH NO
       SIGNIFICANT WEATHER AND/OR OBSTRUCTIONS TO VISIBILITY.
       CURRENT SKY AND/OR WEATHER CONDITIONS ARE NOT AVAILABLE FOR
       CHILLICOTHE AND FARMINGTON.

MOZ001>031-035>038-043-044-053-054-221400-
...NORTHERN AND WESTERN MISSOURI...

CITY           SKY/WX    TMP DP  RH WIND       PRES   REMARKS
KANSAS CTY INT LGT RAIN  42  40  92 SE14      29.60F FOG
KANSAS C DTWN  LGT RAIN  43  40  89 SE10      29.61F
LEE`S SUMMIT   LGT RAIN  42  40  92 S8        29.62F
ST JOSEPH      LGT RAIN  42  40  92 S8        29.60F FOG
CHILLICOTHE      N/A     42  36  79 SE7       29.67S
KIRKSVILLE     CLOUDY    39  36  89 SE9       29.70F

$$
MOZ066>068-077>081-088>096-101>105-221400-
...SOUTHWEST MISSOURI...

CITY           SKY/WX    TMP DP  RH WIND       PRES   REMARKS
SPRINGFIELD    CLOUDY    42  39  89 SE13      29.65R
JOPLIN         CLOUDY    45  43  93 SE8       29.63S FOG

$$
MOZ032>034-039>042-045>050-055>058-069>072-221400-
...CENTRAL MISSOURI...

CITY           SKY/WX    TMP DP  RH WIND       PRES   REMARKS
COLUMBIA       CLOUDY    40  38  93 SE9       29.69F
JEFFERSON CITY LGT RAIN  41  39  93 E5        29.71S FOG
ROLLA          CLOUDY    40  39  97 SE10      29.67F FOG
SEDALIA        LGT RAIN  41  37  86 SE7       29.66F
WHITEMAN AFB   CLOUDY    41  38  88 SE7       29.64F
WARRENSBURG    CLOUDY    41  37  87 SE7       29.64F
OSAGE BEACH    CLOUDY    43  37  81 S5        29.68S

$$
MOZ051-052-059>065-221400-
...EAST CENTRAL MISSOURI...

CITY           SKY/WX    TMP DP  RH WIND       PRES   REMARKS
ST LOUIS INTL  LGT RAIN  40  36  86 SE13      29.78F
SPIRIT OF STL  LGT RAIN  39  36  89 SE5       29.77S
ST CHARLES     LGT RAIN  38  37  97 E13       29.77F FOG     WCI  30

$$
MOZ072>076-082>087-097>100-106>115-221400-
...SOUTH CENTRAL AND SOUTHEAST MISSOURI...

CITY           SKY/WX    TMP DP  RH WIND       PRES   REMARKS
CAPE GIRARDEAU CLOUDY    45  42  89 SE8       29.84F
FARMINGTON     CLOUDY    43  39  87 E12       29.78F
POPLAR BLUFF   LGT RAIN  44  41  89 SE10      29.80F FOG
WEST PLAINS    CLOUDY    44  42  93 S8        29.72R FOG

$$



USA.gov is the U.S. government's official web portal to all federal, state and local government web resources and services.